Location: Cahas Mountain Overlook
(37.0833°N, 80.1000°W)
Time: 07:17:53
(UTC-05:00)

Vanguard 2 Rocket - Pass Details

Date: 14 February 2026
Orbit: 553 x 3287 km, 32.9° (Epoch: 5 March)

Event Time Altitude Azimuth Distance (km) Brightness Sun altitude
Rises 19:24:02 0° 278° (W) 4,908 12.3 -17.4°
Reaches altitude 10° 19:28:26 10° 268° (W) 3,418 11.1 -18.3°
Maximum altitude 19:34:50 26° 215° (SW) 1,777 8.7 -19.6°
Drops below altitude 10° 19:39:12 10° 158° (SSE) 2,260 8.7 -20.5°
Enters shadow 19:39:20 - 157° (SSE) 2,299 8.7 -20.5°
